Weather History for KADM - June, 2013

Change the Weather History Date:

Monday, June 10, 2013

  Actual Average Record
Temperature  
Mean Temperature 80 °F -  
Max Temperature 97 °F 84 °F 102 °F (2005)
Min Temperature 65 °F 66 °F 60 °F (2008)
Cooling Degree Days 16    
Growing Degree Days 30 (Base 50)    
Moisture  
Dew Point 63 °F    
Average Humidity 74    
Maximum Humidity 89    
Minimum Humidity 28    
Precipitation  
Precipitation 0.00 in - - ()
Sea Level Pressure  
Sea Level Pressure 29.92 in    
Wind  
Wind Speed 2 mph (SSW)    
Max Wind Speed 13 mph    
Max Gust Speed 16 mph    
Visibility 10 miles    
Events      
Averages and records for this station are not official NWS values.
T = Trace of Precipitation, MM = Missing Value Source: NWS Daily Summary

Daily Weather History Graph

Daily Weather History Graph

Search for Another Location

Airport or City:

Trip Planner

Search our weather history database for the weather conditions in past years. The results will help you decide how hot, cold, wet, or windy it might be!

Date:

Astronomy

Jun. 10, 2013 Rise Set
Actual Time 6:15 AM CDT 8:39 PM CDT
Civil Twilight 5:46 AM CDT 9:09 PM CDT
Nautical Twilight 5:10 AM CDT 9:45 PM CDT
Astronomical Twilight 4:30 AM CDT 10:24 PM CDT
Moon 8:01 AM CDT (6/10) 10:11 PM CDT (6/10)
Length of Visible Light 15h 22m
Length of Day
14h 24m
Waxing Crescent, 4% of the Moon is Illuminated
Jun 10
Waxing Crescent
Jun 16
First Quarter
Jun 23
Full
Jun 29
Last Quarter
Jul 8
New

Hourly Weather History & Observations

Time (CDT) Temp. Heat Index Dew Point Humidity Pressure Visibility Wind Dir Wind Speed Gust Speed Precip Events Conditions
12:15 AM 68.2 °F - 62.6 °F 82% 29.92 in 10.0 mi Calm Calm - N/A   Clear
12:35 AM 67.6 °F - 63.3 °F 86% 29.92 in 10.0 mi Calm Calm - N/A   Clear
12:55 AM 68.0 °F - 64.2 °F 88% 29.92 in 10.0 mi Calm Calm - N/A   Clear
1:15 AM 67.8 °F - 64.0 °F 88% 29.92 in 10.0 mi Calm Calm - N/A   Clear
1:35 AM 66.9 °F - 62.4 °F 85% 29.92 in 10.0 mi Calm Calm - N/A   Clear
1:55 AM 66.6 °F - 62.4 °F 86% 29.92 in 10.0 mi Calm Calm - N/A   Clear
2:15 AM 66.6 °F - 63.1 °F 89% 29.91 in 10.0 mi Calm Calm - N/A   Clear
2:35 AM 65.8 °F - 62.1 °F 88% 29.91 in 10.0 mi Calm Calm - N/A   Clear
2:55 AM 65.8 °F - 61.7 °F 86% 29.91 in 7.0 mi Calm Calm - N/A   Clear
3:15 AM 65.7 °F - 61.7 °F 87% 29.91 in 1.8 mi Calm Calm - N/A   Mist
3:35 AM 65.8 °F - 62.6 °F 89% 29.91 in 10.0 mi Calm Calm - N/A   Clear
3:55 AM 65.1 °F - 61.5 °F 88% 29.91 in 7.0 mi Calm Calm - N/A   Clear
4:15 AM 65.1 °F - 61.3 °F 88% 29.92 in 10.0 mi Calm Calm - N/A   Clear
4:35 AM 65.3 °F - 61.2 °F 86% 29.91 in 10.0 mi South 3.5 mph - N/A   Clear
4:55 AM 66.2 °F - 62.4 °F 88% 29.91 in 10.0 mi South 4.6 mph - N/A   Clear
5:15 AM 68.0 °F - 64.4 °F 88% 29.91 in 10.0 mi SSW 4.6 mph - N/A   Clear
5:35 AM 68.5 °F - 64.4 °F 87% 29.92 in 10.0 mi Calm Calm - N/A   Clear
5:55 AM 68.9 °F - 64.0 °F 84% 29.92 in 10.0 mi South 4.6 mph - N/A   Clear
6:15 AM 68.7 °F - 64.4 °F 86% 29.93 in 10.0 mi SSW 4.6 mph - N/A   Clear
6:35 AM 69.1 °F - 65.1 °F 87% 29.93 in 10.0 mi South 4.6 mph - N/A   Clear
6:55 AM 69.8 °F - 66.2 °F 88% 29.93 in 10.0 mi Calm Calm - N/A   Clear
7:55 AM 75.2 °F - 68.0 °F 78% 29.94 in 10.0 mi SW 4.6 mph - N/A   Clear
8:55 AM 80.6 °F 83.2 °F 68.0 °F 65% 29.95 in 10.0 mi SSW 6.9 mph - N/A   Clear
9:55 AM 84.2 °F 85.6 °F 64.4 °F 51% 29.96 in 10.0 mi SW 10.4 mph - N/A   Clear
10:55 AM 86.0 °F 86.6 °F 62.6 °F 45% 29.96 in 10.0 mi WSW 12.7 mph - N/A   Clear
11:55 AM 73.4 °F - 62.6 °F 69% 29.95 in 10.0 mi SW 10.4 mph 16.1 mph N/A   Clear
12:55 PM 91.4 °F 92.1 °F 62.6 °F 38% 29.94 in 10.0 mi WSW 8.1 mph 16.1 mph N/A   Clear
1:55 PM 93.2 °F 94.1 °F 62.6 °F 36% 29.93 in 10.0 mi WSW 9.2 mph - N/A   Clear
2:55 PM 95.0 °F 95.2 °F 60.8 °F 32% 29.92 in 10.0 mi SSW 9.2 mph 12.7 mph N/A   Clear
4:55 PM 96.8 °F 99.0 °F 64.4 °F 34% 29.90 in 10.0 mi SSW 11.5 mph - N/A   Clear
5:55 PM 96.8 °F 96.2 °F 59.0 °F 28% 29.89 in 10.0 mi SSW 9.2 mph - N/A   Clear
11:35 PM 73.4 °F - 65.7 °F 77% 29.93 in 10.0 mi East 3.5 mph - N/A   Clear
11:55 PM 72.7 °F - 64.6 °F 76% 29.93 in 10.0 mi Calm Calm - N/A   Clear